When you browse on this site, cookies collect data to enhance your experience and personalize the content and advertising you see.
Visit our Privacy Policy to learn more. By continuing to use the site, you agree to this use of cookies and data.
  • In Hungary
  • List of Countries
  • For 7 days
  • Water Temperature
  • Satellite Maps
  • Weather Map
  • News
  • Weather Widgets
  • user-avatar
    Login

    Hourly Weather Peterborough

    Today, 15 December, Saturday

    Time Temperature Precipitation Wind Pressure Humidity
    00:00 0°C° 0 mm 3 mps 765 mmHg 83%
    01:00 -1°C° 0 mm 4 mps 765 mmHg 82%
    02:00 -1°C° 0 mm 4 mps 764 mmHg 81%
    03:00 -2°C° 0 mm 4 mps 764 mmHg 80%
    04:00 -2°C° 0 mm 5 mps 763 mmHg 79%
    05:00 -1°C° 0 mm 5 mps 763 mmHg 78%
    06:00 -2°C° 0 mm 6 mps 762 mmHg 77%
    07:00 -2°C° 0 mm 7 mps 762 mmHg 75%
    08:00 -2°C° 0 mm 7 mps 761 mmHg 73%
    09:00 -1°C° 0 mm 8 mps 761 mmHg 72%
    10:00 -1°C° 0 mm 9 mps 759 mmHg 71%
    11:00 -1°C° 0 mm 9 mps 758 mmHg 70%
    12:00 0°C° 0 mm 10 mps 757 mmHg 69%
    13:00 0°C° 0.5 mm 10 mps 756 mmHg 72%
    14:00 -2°C° 0.5 mm 10 mps 755 mmHg 76%
    15:00 -2°C° 0.5 mm 10 mps 753 mmHg 80%
    16:00 0°C° 2 mm 10 mps 752 mmHg 83%
    17:00 -1°C° 2 mm 11 mps 750 mmHg 86%
    18:00 +1°C° 2 mm 11 mps 749 mmHg 89%
    19:00 +2°C° 1.2 mm 11 mps 748 mmHg 88%
    20:00 +3°C° 1.2 mm 11 mps 747 mmHg 88%
    21:00 +4°C° 1.2 mm 11 mps 745 mmHg 88%
    22:00 +5°C° 0 mm 10 mps 746 mmHg 86%
    23:00 +5°C° 0 mm 10 mps 746 mmHg 83%

    Tomorrow, 16 December, Sunday

    Time Temperature Precipitation Wind Pressure Humidity
    00:00 +5°C° 0 mm 9 mps 747 mmHg 80%
    01:00 +5°C° 0 mm 8 mps 748 mmHg 80%
    02:00 +4°C° 0 mm 8 mps 748 mmHg 80%
    03:00 +3°C° 0 mm 7 mps 749 mmHg 80%
    04:00 +3°C° 0 mm 6 mps 750 mmHg 83%
    05:00 +3°C° 0 mm 6 mps 751 mmHg 85%
    06:00 +2°C° 0 mm 5 mps 752 mmHg 87%
    07:00 +2°C° 0 mm 5 mps 752 mmHg 88%
    08:00 +3°C° 0 mm 4 mps 753 mmHg 90%
    09:00 +3°C° 0 mm 4 mps 753 mmHg 91%
    10:00 +4°C° 0 mm 4 mps 753 mmHg 88%
    11:00 +5°C° 0 mm 4 mps 753 mmHg 85%
    12:00 +6°C° 0 mm 4 mps 753 mmHg 81%
    13:00 +6°C° 0 mm 4 mps 753 mmHg 83%
    14:00 +5°C° 0 mm 3 mps 753 mmHg 86%
    15:00 +5°C° 0 mm 3 mps 753 mmHg 88%
    16:00 +5°C° 0 mm 3 mps 753 mmHg 89%
    17:00 +5°C° 0 mm 3 mps 754 mmHg 91%
    18:00 +4°C° 0 mm 3 mps 754 mmHg 92%
    19:00 +4°C° 0.2 mm 3 mps 754 mmHg 93%
    20:00 +4°C° 0.2 mm 3 mps 754 mmHg 94%
    21:00 +4°C° 0.2 mm 3 mps 755 mmHg 94%
    22:00 +4°C° 0.1 mm 3 mps 755 mmHg 94%
    23:00 +4°C° 0.1 mm 3 mps 755 mmHg 94%

    Day after tomorrow, 17 December, Monday

    Time Temperature Precipitation Wind Pressure Humidity
    00:00 +3°C° 0.1 mm 3 mps 755 mmHg 94%
    01:00 +3°C° 0 mm 3 mps 756 mmHg 93%
    02:00 +3°C° 0 mm 3 mps 756 mmHg 93%
    03:00 +2°C° 0 mm 3 mps 757 mmHg 92%
    04:00 +2°C° 0 mm 3 mps 757 mmHg 92%
    05:00 +2°C° 0 mm 3 mps 758 mmHg 91%
    06:00 +2°C° 0 mm 3 mps 758 mmHg 91%
    07:00 +2°C° 0 mm 3 mps 759 mmHg 91%
    08:00 +2°C° 0 mm 3 mps 760 mmHg 91%
    09:00 +2°C° 0 mm 3 mps 760 mmHg 91%
    10:00 +3°C° 0 mm 3 mps 761 mmHg 87%
    11:00 +4°C° 0 mm 3 mps 761 mmHg 84%
    12:00 +7°C° 0 mm 3 mps 762 mmHg 80%
    13:00 +5°C° 0 mm 3 mps 762 mmHg 83%
    14:00 +5°C° 0 mm 3 mps 762 mmHg 86%
    15:00 +5°C° 0 mm 3 mps 762 mmHg 89%
    16:00 +5°C° 0 mm 3 mps 762 mmHg 89%
    17:00 +4°C° 0 mm 4 mps 762 mmHg 90%
    18:00 +4°C° 0 mm 4 mps 762 mmHg 91%
    19:00 +4°C° 0 mm 4 mps 762 mmHg 91%
    20:00 +5°C° 0 mm 5 mps 762 mmHg 91%
    21:00 +5°C° 0 mm 5 mps 762 mmHg 91%
    22:00 +5°C° 0 mm 5 mps 762 mmHg 91%
    23:00 +4°C° 0 mm 6 mps 762 mmHg 92%

    18 December, Tuesday

    Time Temperature Precipitation Wind Pressure Humidity
    00:00 +5°C° 0 mm 6 mps 762 mmHg 92%
    01:00 +5°C° 0 mm 6 mps 761 mmHg 92%
    02:00 +5°C° 0 mm 6 mps 761 mmHg 92%
    03:00 +5°C° 0 mm 6 mps 760 mmHg 92%
    04:00 +7°C° 0 mm 6 mps 760 mmHg 92%
    05:00 +7°C° 0 mm 6 mps 760 mmHg 91%
    06:00 +7°C° 0 mm 6 mps 759 mmHg 91%
    07:00 +6°C° 0 mm 7 mps 759 mmHg 90%
    08:00 +6°C° 0 mm 8 mps 758 mmHg 90%
    09:00 +6°C° 0 mm 8 mps 757 mmHg 89%
    10:00 +7°C° 0 mm 9 mps 757 mmHg 85%
    11:00 +7°C° 0 mm 9 mps 756 mmHg 80%
    12:00 +7°C° 0 mm 10 mps 756 mmHg 76%
    13:00 +7°C° 0.1 mm 10 mps 755 mmHg 74%
    14:00 +7°C° 0.1 mm 9 mps 754 mmHg 72%
    15:00 +7°C° 0.1 mm 9 mps 753 mmHg 71%
    16:00 +6°C° 0.4 mm 9 mps 752 mmHg 73%
    17:00 +6°C° 0.4 mm 9 mps 752 mmHg 76%
    18:00 +6°C° 0.4 mm 9 mps 751 mmHg 79%
    19:00 +6°C° 0.6 mm 9 mps 751 mmHg 81%
    20:00 +6°C° 0.6 mm 8 mps 751 mmHg 83%
    21:00 +5°C° 0.6 mm 8 mps 750 mmHg 85%
    22:00 +6°C° 1 mm 8 mps 750 mmHg 86%
    23:00 +6°C° 1 mm 7 mps 750 mmHg 87%

    19 December, Wednesday

    Time Temperature Precipitation Wind Pressure Humidity
    00:00 +6°C° 1 mm 7 mps 750 mmHg 89%
    01:00 +7°C° 0.3 mm 6 mps 750 mmHg 88%
    02:00 +7°C° 0.3 mm 6 mps 751 mmHg 87%
    03:00 +5°C° 0.3 mm 6 mps 751 mmHg 86%
    04:00 +5°C° 0 mm 6 mps 752 mmHg 88%
    05:00 +5°C° 0 mm 5 mps 752 mmHg 89%
    06:00 +5°C° 0 mm 5 mps 753 mmHg 91%
    07:00 +5°C° 0 mm 4 mps 754 mmHg 91%
    08:00 +4°C° 0 mm 4 mps 755 mmHg 92%
    09:00 +4°C° 0 mm 3 mps 755 mmHg 92%
    10:00 +5°C° 0 mm 3 mps 755 mmHg 88%
    11:00 +7°C° 0 mm 3 mps 756 mmHg 83%
    12:00 +7°C° 0 mm 4 mps 756 mmHg 79%
    13:00 +6°C° 0 mm 4 mps 756 mmHg 81%
    14:00 +7°C° 0 mm 3 mps 756 mmHg 82%
    15:00 +7°C° 0 mm 3 mps 756 mmHg 84%
    16:00 +5°C° 0 mm 3 mps 756 mmHg 86%
    17:00 +5°C° 0 mm 4 mps 756 mmHg 88%
    18:00 +4°C° 0 mm 4 mps 756 mmHg 90%
    19:00 +4°C° 0 mm 4 mps 757 mmHg 90%
    20:00 +4°C° 0 mm 4 mps 757 mmHg 90%
    21:00 +4°C° 0 mm 4 mps 757 mmHg 90%
    22:00 +4°C° 0 mm 4 mps 757 mmHg 90%
    23:00 +4°C° 0 mm 4 mps 756 mmHg 89%

    20 December, Thursday

    Time Temperature Precipitation Wind Pressure Humidity
    00:00 +4°C° 0 mm 4 mps 756 mmHg 89%
    01:00 +4°C° 0 mm 4 mps 756 mmHg 89%
    02:00 +4°C° 0 mm 4 mps 756 mmHg 90%
    03:00 +4°C° 0 mm 4 mps 756 mmHg 90%
    04:00 +4°C° 0 mm 4 mps 756 mmHg 91%
    05:00 +4°C° 0 mm 4 mps 756 mmHg 92%
    06:00 +3°C° 0 mm 4 mps 756 mmHg 92%
    07:00 +3°C° 0.1 mm 3 mps 756 mmHg 93%
    08:00 +3°C° 0.1 mm 3 mps 756 mmHg 93%
    09:00 +3°C° 0.1 mm 3 mps 756 mmHg 93%
    10:00 +4°C° 0.1 mm 3 mps 756 mmHg 90%
    11:00 +5°C° 0.1 mm 3 mps 757 mmHg 86%
    12:00 +6°C° 0.1 mm 4 mps 757 mmHg 83%
    13:00 +5°C° 0 mm 3 mps 757 mmHg 84%
    14:00 +5°C° 0 mm 3 mps 757 mmHg 86%
    15:00 +5°C° 0 mm 3 mps 758 mmHg 87%
    16:00 +4°C° 0 mm 3 mps 758 mmHg 88%
    17:00 +4°C° 0 mm 3 mps 758 mmHg 90%
    18:00 +3°C° 0 mm 3 mps 759 mmHg 91%
    19:00 +3°C° 0 mm 3 mps 759 mmHg 91%
    20:00 +3°C° 0 mm 3 mps 759 mmHg 92%
    21:00 +3°C° 0 mm 3 mps 759 mmHg 92%
    22:00 +3°C° 0 mm 3 mps 759 mmHg 92%
    23:00 +3°C° 0 mm 3 mps 759 mmHg 92%
    Show more